User: anonymous   Login
Location: Unspecified
(51.0950°N, 12.9690°E)
Time: 16:05:46
(UTC+00:00)
Language:

Cosmos 2173 Rocket - Orbit

View from above orbital plane
View from above orbital plane
View from above satellite
View from above satellite

Ground track
Ground track

The orbit data is extracted from the following two-line orbital elements,

1 21797U 91081B   22022.20497708  .00000006  00000-0 -10091-4 0  9992
2 21797  82.9520 254.3928 0039081  61.7657  58.2124 13.77538607515684
Epoch (UTC): 22 January 2022 04:55:10
Eccentricity: 0.0039081
inclination: 82.9520°
perigee height: 944 km
apogee height: 1001 km
right ascension of ascending node: 254.3928°
argument of perigee: 61.7657°
revolutions per day: 13.77538607
mean anomaly at epoch: 58.2124°
orbit number at epoch: 51568

The dashed part of the orbit path shows where the satellite is in the earth's shadow,  

DLR